SBU126 TFFJ-TFFG

Flight info

Callsign SBU126
Flight time 0h 11m
Altitude 3000
Route TQPF DCT PJM
Aircraft C208/L-SDFGRY/C

Departure

Time 2026-04-22 08:35
Airport St. Jean Airport (TFFJ)

Arrival

Time 2026-04-22 08:46
Airport Grand Case-l'Espérance Airport (TFFG)
Time Latitude Longitude Altitude Speed Heading
2026-04-22 08:23 17.90372 -62.84503 40 ft 0 kts 89°
2026-04-22 08:30 17.90374 -62.84493 39 ft 7 kts 60°
2026-04-22 08:30 17.90391 -62.84555 45 ft 15 kts 267°
2026-04-22 08:30 17.90424 -62.84652 50 ft 8 kts 13°
2026-04-22 08:31 17.90435 -62.84532 43 ft 30 kts 88°
2026-04-22 08:31 17.90377 -62.84490 39 ft 0 kts 37°
2026-04-22 08:31 17.90389 -62.84525 42 ft 11 kts 264°
2026-04-22 08:32 17.90396 -62.84624 51 ft 8 kts 301°
2026-04-22 08:32 17.90397 -62.84626 51 ft 0 kts 303°
2026-04-22 08:32 17.90399 -62.84629 51 ft 4 kts 306°
2026-04-22 08:32 17.90432 -62.84651 52 ft 6 kts 77°
2026-04-22 08:33 17.90434 -62.84611 49 ft 13 kts 91°
2026-04-22 08:33 17.90435 -62.84370 30 ft 56 kts 87°
2026-04-22 08:33 17.90446 -62.83823 91 ft 84 kts 87°
2026-04-22 08:33 17.90637 -62.83226 243 ft 94 kts 36°
2026-04-22 08:34 17.91317 -62.83198 473 ft 103 kts 345°
2026-04-22 08:34 17.92053 -62.83471 528 ft 125 kts 347°
2026-04-22 08:34 17.92942 -62.83745 536 ft 130 kts 349°
2026-04-22 08:34 17.93769 -62.83966 642 ft 116 kts 351°
2026-04-22 08:35 17.94476 -62.84270 747 ft 111 kts 328°
2026-04-22 08:35 17.95061 -62.84762 866 ft 104 kts 329°
2026-04-22 08:35 17.95611 -62.85224 973 ft 100 kts 327°
2026-04-22 08:35 17.96120 -62.85767 992 ft 106 kts 320°
2026-04-22 08:36 17.96646 -62.86340 997 ft 111 kts 321°
2026-04-22 08:36 17.97190 -62.86929 1006 ft 113 kts 321°
2026-04-22 08:36 17.97742 -62.87528 1010 ft 115 kts 321°
2026-04-22 08:36 17.98306 -62.88137 1007 ft 117 kts 321°
2026-04-22 08:37 17.98874 -62.88754 1009 ft 118 kts 321°
2026-04-22 08:37 17.99448 -62.89374 1007 ft 118 kts 321°
2026-04-22 08:37 18.00015 -62.89988 1009 ft 119 kts 321°
2026-04-22 08:37 18.00594 -62.90612 1009 ft 120 kts 321°
2026-04-22 08:38 18.01175 -62.91237 1009 ft 121 kts 321°
2026-04-22 08:38 18.01767 -62.91872 1008 ft 121 kts 321°
2026-04-22 08:38 18.02356 -62.92504 1007 ft 120 kts 321°
2026-04-22 08:38 18.02942 -62.93132 1007 ft 120 kts 321°
2026-04-22 08:39 18.03526 -62.93758 1006 ft 120 kts 321°
2026-04-22 08:39 18.04109 -62.94382 1006 ft 120 kts 321°
2026-04-22 08:39 18.04694 -62.95007 1005 ft 120 kts 319°
2026-04-22 08:39 18.05303 -62.95610 1004 ft 120 kts 321°
2026-04-22 08:40 18.05920 -62.96199 1002 ft 120 kts 321°
2026-04-22 08:40 18.06526 -62.96779 1001 ft 119 kts 321°
2026-04-22 08:40 18.07141 -62.97367 1002 ft 120 kts 321°
2026-04-22 08:40 18.07757 -62.97956 1004 ft 120 kts 321°
2026-04-22 08:41 18.08207 -62.98387 1011 ft 120 kts 321°
2026-04-22 08:41 18.08648 -62.98808 1012 ft 120 kts 321°
2026-04-22 08:41 18.09270 -62.99399 1011 ft 120 kts 321°
2026-04-22 08:41 18.09888 -62.99988 1010 ft 120 kts 321°
2026-04-22 08:42 18.10505 -63.00575 1009 ft 120 kts 321°
2026-04-22 08:42 18.11122 -63.01162 1010 ft 120 kts 321°
2026-04-22 08:42 18.11740 -63.01754 1011 ft 120 kts 321°
2026-04-22 08:42 18.12273 -63.02417 1012 ft 123 kts 303°
2026-04-22 08:43 18.12714 -63.03196 1013 ft 124 kts 304°
2026-04-22 08:43 18.13023 -63.04040 1009 ft 125 kts 281°
2026-04-22 08:43 18.13175 -63.04933 1009 ft 123 kts 283°
2026-04-22 08:43 18.13344 -63.05843 1022 ft 132 kts 283°
2026-04-22 08:44 18.13388 -63.06832 1029 ft 141 kts 260°
2026-04-22 08:44 18.13085 -63.07826 1030 ft 145 kts 237°
2026-04-22 08:44 18.12281 -63.08381 1026 ft 141 kts 187°
2026-04-22 08:44 18.11430 -63.08126 990 ft 119 kts 137°
2026-04-22 08:45 18.10910 -63.07475 688 ft 113 kts 119°
2026-04-22 08:45 18.10581 -63.06749 396 ft 109 kts 104°
2026-04-22 08:45 18.10378 -63.06028 221 ft 99 kts 107°
2026-04-22 08:45 18.10186 -63.05351 67 ft 95 kts 106°
2026-04-22 08:46 18.10008 -63.04742 12 ft 71 kts 105°
2026-04-22 08:46 18.09929 -63.04504 11 ft 10 kts 109°
2026-04-22 08:46 18.09945 -63.04530 11 ft 12 kts 284°
2026-04-22 08:46 18.09979 -63.04646 11 ft 18 kts 287°
2026-04-22 08:47 18.10031 -63.04752 12 ft 19 kts 347°
2026-04-22 08:47 18.10105 -63.04799 17 ft 19 kts 288°
2026-04-22 08:47 18.10157 -63.04825 17 ft 6 kts 84°
2026-04-22 08:47 18.10156 -63.04821 17 ft 0 kts 106°